Погода в Суге-Бажы

Россия / Республика Тыва     51°39′19″N   94°51′21″E
темп.,
°C
ветер,
м/с
пор.,
м/с
влажн.,
%
обл.,
%
осадки,
мм/ч
давл.,
гПа
погр.,
м
24 июля, сб
сб2401:00+21с125742 0.1 100431
04:00+21ссз225598 0.0 100320
07:00+22в1149100 0.0 1003188
10:00+24з2145100 0.0 1003591
13:00+23сз2348100 0.0 1003213
16:00+23зсз3453100 0.0 1003469
19:00+21ссз126699 0.3 1005208
22:00+18с1181100 0.3 100526
25 июля, вс
вс2501:00+17ссз3387100 2.3 100695
04:00+16с1188100 2.0 100558
07:00+17сз1186100 2.4 1006102
10:00+20зюз2267100 0.1 1005874
13:00+18ююв1182100 2.6 100644
16:00+18сз1180100 1.5 1006161
19:00+19с117495 1.7 1005144
22:00+16с1186100 0.0 100611
26 июля, пн
пн2601:00+15св118694 0.0 100611
04:00+14в118898 0.0 100511
07:00+17юв1179100 0.0 1006174
10:00+21ююз116431 0.0 1004780
13:00+25зюз224672 0.2 10011601
16:00+27з213979 0.5 10002333
19:00+22зсз236182 1.6 100163
22:00+17ссз118050 0.9 100214
27 июля, вт
вт2701:00+16в1189100 3.4 100321
04:00+16св1186100 0.6 100233
07:00+16ссв0088100 1.1 100383
10:00+17зюз1188100 0.3 1003228
13:00+16зсз2395100 3.7 1003214
16:00+17ссз238766 5.7 1003306
19:00+19ссз2471100 6.3 1003664
22:00+14с3385100 0.0 100440
28 июля, ср
ср2801:00+12с33822 0.0 100637
04:00+10с2283100 0.0 100622
07:00+13ссз1173100 0.0 1006145
10:00+17з125842 0.0 1006899
13:00+19ссз335367 0.8 10041458
16:00+20с234549 0.1 10041233
19:00+19св344679 0.1 1004423
22:00+13ссв336321 0.0 100636